Location: Regona
(45.2000°N, 9.8167°E)
Time: 16:13:09
(UTC+00:00)

Cosmos 2263 Rocket - Visible Passes

Search period start: 24 September 2020 00:00
Search period end: 04 October 2020 00:00
Orbit: 823 x 848 km, 71.0° (Epoch: 23 September)

Date Brightness Start Highest point End Pass type
(mag) Time Alt. Az. Time Alt. Az. Time Alt. Az.
24 Sep 3.9 01:17:01 10° N 01:21:57 30° NE 01:26:53 10° ESE visible
24 Sep 2.3 03:00:40 10° NW 03:06:06 49° WSW 03:11:33 10° S visible
24 Sep 3.8 17:53:12 10° WSW 17:58:21 38° NW 18:03:34 10° NNE visible
25 Sep 4.1 01:00:18 10° N 01:03:49 25° NNE 01:03:49 25° NNE visible
25 Sep 3.9 02:43:51 10° NW 02:45:20 18° NW 02:45:20 18° NW visible
25 Sep 3.6 17:36:19 10° SW 17:41:33 41° NW 17:46:50 10° NNE visible
26 Sep 4.5 00:43:35 10° N 00:45:36 19° N 00:45:36 19° N visible
26 Sep 4.5 02:27:02 10° NNW 02:27:11 11° NNW 02:27:11 11° NNW visible
26 Sep 5.3 19:09:53 10° NW 19:10:16 10° NW 19:10:39 10° NNW visible
27 Sep 4.8 00:26:52 10° N 00:28:02 15° N 00:28:02 15° N visible
27 Sep 5.1 18:52:04 10° NW 18:53:23 11° NW 18:54:41 10° NNW visible
28 Sep 5.0 00:10:10 10° N 00:10:46 12° N 00:10:46 12° N visible
28 Sep 5.0 18:34:41 10° NW 18:36:30 11° NW 18:38:18 10° NNW visible
28 Sep 5.1 23:53:29 10° N 23:53:41 11° N 23:53:41 11° N visible
29 Sep 4.9 18:17:26 10° WNW 18:19:37 12° NW 18:21:49 10° NNW visible
30 Sep 4.9 18:00:15 10° WNW 18:02:44 13° NW 18:05:16 10° N visible
01 Oct 4.8 17:43:05 10° WNW 17:45:53 14° NW 17:48:41 10° N visible
02 Oct 4.7 17:25:58 10° WNW 17:29:01 15° NW 17:32:05 10° N visible
